| time (UTC) | temp F | wind direction | speed knots | gust knots | rain 1hr in | rain 24hr in | rain mn in | humidity % | barometer mb |
| 20260508025019 | 48 | 0.0 | 0.0 | 0.00 | 0.00 | 0.00 | 85 | 1015.5 | |
| 20260508024020 | 49 | 0.0 | 0.0 | 0.00 | 0.00 | 0.00 | 85 | 1015.4 | |
| 20260508023019 | 49 | 0.0 | 0.0 | 0.00 | 0.00 | 0.00 | 85 | 1015.5 | |
| 20260508022030 | 49 | 0.0 | 0.0 | 0.00 | 0.00 | 0.00 | 84 | 1015.6 | |
| 20260508021019 | 50 | 0.0 | 0.0 | 0.00 | 0.00 | 0.00 | 84 | 1015.6 | |
| 20260508020050 | 50 | 23 | 0.9 | 0.9 | 0.00 | 0.00 | 0.00 | 84 | 1015.6 |
| 20260508015019 | 50 | 45 | 1.7 | 2.6 | 0.00 | 0.00 | 0.00 | 83 | 1015.6 |
| 20260508014020 | 50 | 0.0 | 0.0 | 0.00 | 0.00 | 0.00 | 83 | 1015.6 | |
| 20260508013019 | 51 | 0.0 | 0.0 | 0.00 | 0.00 | 0.00 | 83 | 1015.6 | |
| 20260508012019 | 51 | 0.0 | 0.0 | 0.00 | 0.00 | 0.00 | 82 | 1015.5 | |
| 20260508011019 | 51 | 0.0 | 0.0 | 0.00 | 0.00 | 0.00 | 82 | 1015.6 | |
| 20260508010040 | 51 | 0.0 | 0.0 | 0.00 | 0.00 | 0.00 | 82 | 1015.7 | |
| 20260508005020 | 51 | 0.0 | 0.0 | 0.00 | 0.00 | 0.00 | 82 | 1015.7 | |
| 20260508004019 | 51 | 0.0 | 0.0 | 0.00 | 0.00 | 0.00 | 82 | 1015.7 | |
| 20260508003030 | 51 | 45 | 0.9 | 0.9 | 0.00 | 0.00 | 0.00 | 82 | 1015.8 |
| 20260508002030 | 51 | 0.0 | 0.9 | 0.00 | 0.00 | 0.00 | 82 | 1015.8 | |
| 20260508001030 | 51 | 0.0 | 0.0 | 0.00 | 0.00 | 0.00 | 82 | 1015.8 | |
| 20260508000030 | 51 | 0.0 | 0.0 | 0.00 | 0.00 | 0.00 | 82 | 1015.8 | |
| 20260507235020 | 51 | 0.0 | 0.9 | 0.00 | 0.00 | 0.00 | 82 | 1015.9 | |
| 20260507234020 | 51 | 0.0 | 0.0 | 0.00 | 0.00 | 0.00 | 82 | 1016.0 | |
| 20260507233020 | 51 | 0.0 | 0.0 | 0.00 | 0.00 | 0.00 | 82 | 1016.0 | |
| 20260507232142 | 51 | 0.0 | 0.0 | 0.00 | 0.00 | 0.00 | 82 | 1016.1 | |
| 20260507231020 | 51 | 0.0 | 0.0 | 0.00 | 0.00 | 0.00 | 82 | 1016.1 | |
| 20260507230019 | 51 | 0.0 | 0.9 | 0.00 | 0.00 | 0.00 | 83 | 1016.3 | |
| 20260507225020 | 51 | 0.0 | 0.0 | 0.00 | 0.00 | 0.00 | 83 | 1016.2 | |
| 20260507224019 | 51 | 0.0 | 0.0 | 0.00 | 0.00 | 0.00 | 83 | 1016.1 | |
| 20260507223041 | 51 | 0.0 | 0.0 | 0.00 | 0.00 | 0.00 | 83 | 1016.3 | |
| 20260507222020 | 51 | 0.0 | 0.0 | 0.00 | 0.00 | 0.00 | 82 | 1016.2 | |
| 20260507221059 | 51 | 0.0 | 0.0 | 0.00 | 0.00 | 0.00 | 82 | 1016.3 | |
| 20260507220020 | 51 | 0.0 | 0.9 | 0.00 | 0.00 | 0.00 | 82 | 1016.3 | |
| 20260507215030 | 52 | 0.0 | 0.0 | 0.00 | 0.00 | 0.00 | 82 | 1016.3 | |
| 20260507214030 | 52 | 0.0 | 0.0 | 0.00 | 0.00 | 0.00 | 81 | 1016.3 | |
| 20260507213019 | 52 | 0.0 | 0.0 | 0.00 | 0.00 | 0.00 | 81 | 1016.5 | |
| 20260507212030 | 52 | 68 | 0.9 | 1.7 | 0.00 | 0.00 | 0.00 | 81 | 1016.3 |
| 20260507211039 | 52 | 0.0 | 0.0 | 0.00 | 0.00 | 0.00 | 81 | 1016.4 | |
| 20260507210020 | 52 | 45 | 0.9 | 1.7 | 0.00 | 0.00 | 0.00 | 81 | 1016.3 |
| 20260507205019 | 52 | 0.0 | 0.9 | 0.00 | 0.00 | 0.00 | 81 | 1016.4 | |
| 20260507204020 | 52 | 68 | 0.9 | 1.7 | 0.00 | 0.00 | 0.00 | 81 | 1016.2 |
| 20260507203040 | 53 | 45 | 0.9 | 1.7 | 0.00 | 0.00 | 0.00 | 80 | 1016.2 |
| 20260507202019 | 53 | 0.0 | 0.9 | 0.00 | 0.00 | 0.00 | 80 | 1016.2 | |
| 20260507201039 | 53 | 90 | 0.9 | 1.7 | 0.00 | 0.00 | 0.00 | 80 | 1016.0 |
| 20260507200030 | 53 | 113 | 0.9 | 1.7 | 0.00 | 0.00 | 0.00 | 80 | 1015.9 |
| 20260507195019 | 53 | 45 | 0.9 | 1.7 | 0.00 | 0.00 | 0.00 | 79 | 1015.8 |
| 20260507194022 | 53 | 45 | 0.9 | 1.7 | 0.00 | 0.00 | 0.00 | 79 | 1015.7 |
| 20260507193039 | 53 | 45 | 0.9 | 0.9 | 0.00 | 0.00 | 0.00 | 79 | 1015.6 |
| 20260507192030 | 54 | 68 | 0.9 | 1.7 | 0.00 | 0.00 | 0.00 | 79 | 1015.7 |
| 20260507191039 | 54 | 45 | 0.9 | 1.7 | 0.00 | 0.00 | 0.00 | 78 | 1015.6 |
| 20260507190030 | 54 | 23 | 2.6 | 3.5 | 0.00 | 0.00 | 0.00 | 78 | 1015.5 |
| 20260507185030 | 54 | 23 | 0.9 | 1.7 | 0.00 | 0.00 | 0.00 | 78 | 1015.5 |
| 20260507184019 | 54 | 0.0 | 0.9 | 0.00 | 0.00 | 0.00 | 77 | 1015.4 | |
| 20260507183019 | 54 | 0 | 0.9 | 1.7 | 0.00 | 0.00 | 0.00 | 77 | 1015.4 |
| 20260507182019 | 55 | 45 | 1.7 | 2.6 | 0.00 | 0.00 | 0.00 | 77 | 1015.6 |
| 20260507181039 | 55 | 0.0 | 0.9 | 0.00 | 0.00 | 0.00 | 76 | 1015.5 | |
| 20260507180019 | 55 | 45 | 1.7 | 2.6 | 0.00 | 0.00 | 0.00 | 76 | 1015.5 |
| 20260507175019 | 55 | 68 | 0.9 | 2.6 | 0.00 | 0.00 | 0.00 | 76 | 1015.5 |
| 20260507174019 | 55 | 68 | 0.9 | 1.7 | 0.00 | 0.00 | 0.00 | 76 | 1015.5 |
| 20260507173041 | 55 | 45 | 0.9 | 1.7 | 0.00 | 0.00 | 0.00 | 77 | 1015.4 |
| 20260507172019 | 55 | 23 | 0.9 | 2.6 | 0.00 | 0.00 | 0.00 | 77 | 1015.5 |
| 20260507171051 | 55 | 23 | 2.6 | 4.3 | 0.00 | 0.00 | 0.00 | 77 | 1015.6 |
| 20260507170019 | 55 | 90 | 0.9 | 2.6 | 0.00 | 0.00 | 0.00 | 77 | 1015.6 |
| 20260507165019 | 55 | 0.0 | 0.9 | 0.00 | 0.00 | 0.00 | 78 | 1015.6 | |
| 20260507164039 | 55 | 68 | 1.7 | 3.5 | 0.00 | 0.00 | 0.00 | 78 | 1015.5 |
| 20260507163218 | 55 | 23 | 1.7 | 3.5 | 0.00 | 0.00 | 0.00 | 78 | 1015.6 |
| 20260507162219 | 55 | 23 | 1.7 | 2.6 | 0.00 | 0.00 | 0.00 | 78 | 1015.6 |
| 20260507161219 | 55 | 0 | 1.7 | 2.6 | 0.00 | 0.00 | 0.00 | 78 | 1015.6 |
| 20260507160219 | 55 | 45 | 1.7 | 3.5 | 0.00 | 0.00 | 0.00 | 77 | 1015.7 |
| 20260507155250 | 55 | 23 | 3.5 | 7.0 | 0.00 | 0.00 | 0.00 | 77 | 1015.5 |
| 20260507154219 | 55 | 45 | 2.6 | 3.5 | 0.00 | 0.00 | 0.00 | 77 | 1015.6 |
| 20260507153219 | 56 | 0 | 2.6 | 4.3 | 0.00 | 0.00 | 0.00 | 77 | 1015.6 |
| 20260507152219 | 56 | 23 | 3.5 | 7.0 | 0.00 | 0.00 | 0.00 | 77 | 1015.6 |
| 20260507151219 | 56 | 45 | 1.7 | 3.5 | 0.00 | 0.00 | 0.00 | 77 | 1015.5 |
| 20260507150219 | 56 | 338 | 1.7 | 2.6 | 0.00 | 0.00 | 0.00 | 76 | 1015.6 |
| 20260507145219 | 56 | 315 | 0.9 | 2.6 | 0.00 | 0.00 | 0.00 | 76 | 1015.6 |
| 20260507144219 | 56 | 23 | 3.5 | 4.3 | 0.00 | 0.00 | 0.00 | 75 | 1015.6 |
| 20260507143218 | 56 | 23 | 0.9 | 5.2 | 0.00 | 0.00 | 0.00 | 75 | 1015.7 |
| 20260507142218 | 57 | 0 | 3.5 | 8.7 | 0.00 | 0.00 | 0.00 | 74 | 1015.7 |
| 20260507141240 | 57 | 23 | 3.5 | 6.1 | 0.00 | 0.00 | 0.00 | 74 | 1015.6 |
| 20260507140240 | 57 | 45 | 1.7 | 2.6 | 0.00 | 0.00 | 0.00 | 75 | 1015.7 |
| 20260507135219 | 57 | 0 | 3.5 | 7.0 | 0.00 | 0.00 | 0.00 | 75 | 1015.7 |
| 20260507134219 | 57 | 45 | 1.7 | 4.3 | 0.00 | 0.00 | 0.00 | 75 | 1015.7 |
| 20260507133426 | 57 | 23 | 3.5 | 7.0 | 0.00 | 0.00 | 0.00 | 75 | 1015.7 |
| 20260507132419 | 57 | 45 | 4.3 | 7.0 | 0.00 | 0.00 | 0.00 | 74 | 1015.6 |
| 20260507131438 | 58 | 0 | 3.5 | 7.8 | 0.00 | 0.00 | 0.00 | 74 | 1015.8 |
| 20260507130418 | 57 | 23 | 0.9 | 2.6 | 0.00 | 0.00 | 0.00 | 74 | 1015.8 |
| 20260507125419 | 58 | 23 | 1.7 | 2.6 | 0.00 | 0.00 | 0.00 | 75 | 1015.7 |
| 20260507124645 | 57 | 23 | 4.3 | 7.0 | 0.00 | 0.00 | 0.00 | 75 | 1015.8 |
| 20260507123918 | 57 | 45 | 6.1 | 7.8 | 0.00 | 0.00 | 0.00 | 76 | 1015.8 |
| 20260507122918 | 57 | 315 | 2.6 | 4.3 | 0.00 | 0.00 | 0.00 | 77 | 1015.7 |
| 20260507121940 | 57 | 0 | 1.7 | 4.3 | 0.00 | 0.00 | 0.00 | 76 | 1015.7 |
| 20260507120950 | 57 | 180 | 0.9 | 1.7 | 0.00 | 0.00 | 0.00 | 75 | 1015.6 |
| 20260507115950 | 57 | 23 | 0.9 | 2.6 | 0.00 | 0.00 | 0.00 | 75 | 1015.6 |
| 20260507114918 | 58 | 270 | 0.9 | 1.7 | 0.00 | 0.00 | 0.00 | 74 | 1015.6 |
| 20260507113918 | 58 | 338 | 1.7 | 3.5 | 0.00 | 0.00 | 0.00 | 73 | 1015.5 |
| 20260507112940 | 59 | 68 | 0.9 | 1.7 | 0.00 | 0.00 | 0.00 | 72 | 1015.6 |
| 20260507111918 | 59 | 270 | 1.7 | 2.6 | 0.00 | 0.00 | 0.00 | 70 | 1015.6 |
| 20260507110949 | 59 | 0.0 | 0.9 | 0.00 | 0.00 | 0.00 | 72 | 1015.7 | |
| 20260507105918 | 58 | 0.0 | 0.9 | 0.00 | 0.00 | 0.00 | 73 | 1015.6 | |
| 20260507104931 | 57 | 0.0 | 0.9 | 0.00 | 0.00 | 0.00 | 73 | 1015.8 | |
| 20260507103918 | 58 | 338 | 1.7 | 3.5 | 0.00 | 0.00 | 0.00 | 73 | 1015.8 |
| 20260507102929 | 58 | 23 | 1.7 | 2.6 | 0.00 | 0.00 | 0.00 | 75 | 1015.9 |
| 20260507101929 | 57 | 293 | 1.7 | 2.6 | 0.00 | 0.00 | 0.00 | 75 | 1015.8 |
| 20260507100918 | 57 | 135 | 1.7 | 2.6 | 0.00 | 0.00 | 0.00 | 77 | 1015.8 |
| 20260507095940 | 57 | 315 | 0.9 | 1.7 | 0.00 | 0.00 | 0.00 | 78 | 1015.6 |
| 20260507094920 | 56 | 23 | 1.7 | 3.5 | 0.00 | 0.00 | 0.00 | 77 | 1015.6 |
| 20260507093929 | 56 | 0 | 0.9 | 2.6 | 0.00 | 0.00 | 0.00 | 78 | 1015.6 |
| 20260507092929 | 56 | 0.0 | 0.9 | 0.00 | 0.00 | 0.00 | 79 | 1015.5 | |
| 20260507091918 | 56 | 0.0 | 0.9 | 0.00 | 0.00 | 0.00 | 79 | 1015.4 | |
| 20260507090941 | 55 | 0.0 | 0.9 | 0.00 | 0.00 | 0.00 | 81 | 1015.3 | |
| 20260507085918 | 55 | 0.0 | 0.9 | 0.00 | 0.00 | 0.00 | 80 | 1015.3 | |
| 20260507084920 | 55 | 338 | 0.9 | 1.7 | 0.00 | 0.00 | 0.00 | 80 | 1015.4 |
| 20260507084010 | 54 | 0.0 | 0.9 | 0.00 | 0.00 | 0.00 | 81 | 1015.4 | |
| 20260507082940 | 54 | 0 | 0.9 | 1.7 | 0.00 | 0.00 | 0.00 | 81 | 1015.3 |
| 20260507081920 | 54 | 113 | 0.9 | 2.6 | 0.00 | 0.00 | 0.00 | 81 | 1015.0 |
| 20260507080920 | 53 | 0.0 | 0.9 | 0.00 | 0.00 | 0.00 | 81 | 1015.1 | |
| 20260507075918 | 54 | 68 | 2.6 | 3.5 | 0.00 | 0.00 | 0.00 | 81 | 1015.0 |
| 20260507074920 | 53 | 0 | 2.6 | 3.5 | 0.00 | 0.00 | 0.00 | 82 | 1015.1 |
| 20260507073920 | 53 | 315 | 1.7 | 2.6 | 0.00 | 0.00 | 0.00 | 82 | 1015.0 |
| 20260507072931 | 53 | 45 | 2.6 | 3.5 | 0.00 | 0.00 | 0.00 | 82 | 1015.0 |
| 20260507071920 | 53 | 338 | 1.7 | 3.5 | 0.00 | 0.00 | 0.00 | 82 | 1014.9 |
| 20260507070929 | 53 | 23 | 0.9 | 1.7 | 0.00 | 0.00 | 0.00 | 83 | 1014.8 |
| 20260507065931 | 52 | 315 | 0.9 | 2.6 | 0.00 | 0.00 | 0.00 | 83 | 1014.8 |
| 20260507064920 | 52 | 0 | 0.9 | 2.6 | 0.00 | 0.00 | 0.00 | 84 | 1014.6 |
| 20260507063920 | 51 | 23 | 0.9 | 1.7 | 0.00 | 0.00 | 0.00 | 86 | 1014.6 |
| 20260507063011 | 51 | 45 | 1.7 | 2.6 | 0.00 | 0.00 | 0.00 | 87 | 1014.7 |
| 20260507061931 | 51 | 0.0 | 0.0 | 0.00 | 0.00 | 0.00 | 88 | 1014.7 | |
| 20260507060920 | 51 | 0.0 | 0.0 | 0.00 | 0.00 | 0.00 | 88 | 1014.7 | |
| 20260507055930 | 51 | 0.0 | 0.0 | 0.00 | 0.00 | 0.00 | 88 | 1014.7 | |
| 20260507054920 | 50 | 0.0 | 0.0 | 0.00 | 0.00 | 0.00 | 88 | 1014.5 | |
| 20260507053930 | 50 | 0.0 | 0.0 | 0.00 | 0.00 | 0.00 | 88 | 1014.3 | |
| 20260507052920 | 50 | 0.0 | 0.0 | 0.00 | 0.00 | 0.00 | 88 | 1014.3 | |
| 20260507052225 | 50 | 0.0 | 0.0 | 0.00 | 0.00 | 0.00 | 88 | 1014.2 | |
| 20260507051520 | 50 | 0.0 | 0.9 | 0.00 | 0.00 | 0.00 | 88 | 1014.2 | |
| 20260507050530 | 50 | 225 | 0.9 | 0.9 | 0.00 | 0.00 | 0.00 | 89 | 1014.1 |
| 20260507045520 | 50 | 0.0 | 0.0 | 0.00 | 0.00 | 0.00 | 89 | 1013.8 | |
| 20260507044530 | 50 | 0.0 | 0.0 | 0.00 | 0.00 | 0.00 | 89 | 1013.8 | |
| 20260507043530 | 50 | 0.0 | 0.0 | 0.00 | 0.00 | 0.00 | 89 | 1013.7 | |
| 20260507042520 | 50 | 0.0 | 0.0 | 0.00 | 0.00 | 0.00 | 89 | 1013.8 | |
| 20260507041519 | 50 | 0.0 | 0.0 | 0.00 | 0.00 | 0.00 | 89 | 1013.7 | |
| 20260507040540 | 50 | 0.0 | 0.0 | 0.00 | 0.00 | 0.00 | 89 | 1013.7 | |
| 20260507035520 | 49 | 0.0 | 0.0 | 0.00 | 0.00 | 0.00 | 89 | 1013.7 | |
| 20260507034530 | 49 | 0.0 | 0.0 | 0.00 | 0.00 | 0.00 | 88 | 1013.6 | |
| 20260507033541 | 49 | 0.0 | 0.0 | 0.00 | 0.00 | 0.00 | 88 | 1013.4 | |
| 20260507032539 | 49 | 0.0 | 0.0 | 0.00 | 0.00 | 0.00 | 88 | 1013.5 | |
| 20260507031540 | 49 | 0.0 | 0.0 | 0.00 | 0.00 | 0.00 | 88 | 1013.5 | |
| 20260507030520 | 49 | 0.0 | 0.0 | 0.00 | 0.00 | 0.00 | 88 | 1013.5 | |
| 20260507025530 | 49 | 0.0 | 0.0 | 0.00 | 0.00 | 0.00 | 87 | 1013.4 |